Time,TemperatureF,DewpointF,PressureIn,WindDirection,WindDirectionDegrees,WindSpeedMPH,WindSpeedGustMPH,Humidity,HourlyPrecipIn,Conditions,Clouds,dailyrainin,SoftwareType,DateUTC
2013-01-21 00:03:00,30.5,29.5,29.32,NW,309,0.0,0.0,96,0.00,,,0.01,Wunderground v.1.15,2013-01-21 00:03:00,
2013-01-21 00:08:00,30.5,29.5,29.32,NW,308,0.0,0.0,96,0.00,,,0.01,Wunderground v.1.15,2013-01-21 00:08:00,
2013-01-21 00:13:00,30.6,29.3,29.32,WNW,292,0.0,0.0,95,0.00,,,0.01,Wunderground v.1.15,2013-01-21 00:13:00,
2013-01-21 00:23:00,30.5,29.5,29.32,WNW,292,0.0,0.0,96,0.00,,,0.00,Wunderground v.1.15,2013-01-21 00:23:00,
2013-01-21 00:28:00,30.5,29.2,29.32,WNW,291,0.0,0.0,95,0.00,,,0.00,Wunderground v.1.15,2013-01-21 00:28:00,
2013-01-21 00:38:00,30.5,29.2,29.32,WNW,291,0.0,0.0,95,0.00,,,0.00,Wunderground v.1.15,2013-01-21 00:38:00,
2013-01-21 00:43:00,30.5,29.2,29.32,WNW,292,0.0,0.0,95,0.00,,,0.00,Wunderground v.1.15,2013-01-21 00:43:00,
2013-01-21 00:48:00,30.5,29.5,29.32,WNW,291,0.0,0.0,96,0.00,,,0.00,Wunderground v.1.15,2013-01-21 00:48:00,
2013-01-21 00:53:00,30.5,29.5,29.31,WNW,291,0.0,0.0,96,0.00,,,0.00,Wunderground v.1.15,2013-01-21 00:53:00,
2013-01-21 01:03:00,30.5,29.5,29.31,WNW,290,0.0,0.0,96,0.00,,,0.00,Wunderground v.1.15,2013-01-21 01:03:00,
2013-01-21 01:08:00,30.5,29.5,29.31,WNW,290,0.0,0.0,96,0.00,,,0.00,Wunderground v.1.15,2013-01-21 01:08:00,
2013-01-21 01:13:00,30.5,29.5,29.31,WNW,290,0.0,0.0,96,0.00,,,0.00,Wunderground v.1.15,2013-01-21 01:13:00,
2013-01-21 01:23:00,30.4,29.4,29.31,WNW,290,0.0,0.0,96,0.00,,,0.00,Wunderground v.1.15,2013-01-21 01:23:00,
2013-01-21 01:28:00,30.4,29.1,29.31,WNW,290,0.0,0.0,95,0.00,,,0.00,Wunderground v.1.15,2013-01-21 01:28:00,
2013-01-21 01:38:00,30.4,29.4,29.31,WNW,290,0.0,0.0,96,0.00,,,0.00,Wunderground v.1.15,2013-01-21 01:38:00,
2013-01-21 01:43:00,30.4,29.4,29.31,WNW,290,0.0,0.0,96,0.00,,,0.00,Wunderground v.1.15,2013-01-21 01:43:00,
2013-01-21 01:53:00,30.4,29.4,29.31,WNW,290,0.0,0.0,96,0.00,,,0.00,Wunderground v.1.15,2013-01-21 01:53:00,
2013-01-21 02:03:00,30.4,29.4,29.31,WNW,290,0.0,0.0,96,0.00,,,0.00,Wunderground v.1.15,2013-01-21 02:03:00,
2013-01-21 02:08:00,30.3,29.3,29.31,WNW,290,0.0,0.0,96,0.00,,,0.00,Wunderground v.1.15,2013-01-21 02:08:00,
2013-01-21 02:13:00,30.3,29.3,29.31,WNW,290,0.0,0.0,96,0.00,,,0.00,Wunderground v.1.15,2013-01-21 02:13:00,
2013-01-21 02:18:00,30.3,29.3,29.31,WNW,290,0.0,0.0,96,0.00,,,0.00,Wunderground v.1.15,2013-01-21 02:18:00,
2013-01-21 02:23:00,30.3,29.3,29.31,WNW,290,0.0,0.0,96,0.00,,,0.00,Wunderground v.1.15,2013-01-21 02:23:00,
2013-01-21 02:33:00,30.3,29.3,29.31,WNW,288,0.0,0.0,96,0.00,,,0.00,Wunderground v.1.15,2013-01-21 02:33:00,
2013-01-21 02:38:00,30.3,29.3,29.31,WNW,288,0.0,0.0,96,0.00,,,0.00,Wunderground v.1.15,2013-01-21 02:38:00,
2013-01-21 02:43:00,30.3,29.3,29.31,WNW,288,0.0,0.0,96,0.00,,,0.00,Wunderground v.1.15,2013-01-21 02:43:00,
2013-01-21 02:48:00,30.3,29.3,29.31,WNW,288,0.0,0.0,96,0.00,,,0.00,Wunderground v.1.15,2013-01-21 02:48:00,
2013-01-21 02:53:00,30.3,29.3,29.31,WNW,288,0.0,0.0,96,0.00,,,0.00,Wunderground v.1.15,2013-01-21 02:53:00,
2013-01-21 03:03:00,30.3,29.3,29.31,WNW,288,0.0,0.0,96,0.00,,,0.00,Wunderground v.1.15,2013-01-21 03:03:00,
2013-01-21 03:08:00,30.3,29.3,29.31,WNW,288,0.0,0.0,96,0.00,,,0.00,Wunderground v.1.15,2013-01-21 03:08:00,
2013-01-21 03:18:00,30.3,29.3,29.31,WNW,288,0.0,0.0,96,0.00,,,0.00,Wunderground v.1.15,2013-01-21 03:18:00,
2013-01-21 03:23:00,30.2,28.9,29.31,WNW,288,0.0,0.0,95,0.00,,,0.00,Wunderground v.1.15,2013-01-21 03:23:00,
2013-01-21 03:28:00,30.2,28.9,29.31,WNW,288,0.0,0.0,95,0.00,,,0.00,Wunderground v.1.15,2013-01-21 03:28:00,
2013-01-21 03:38:00,30.2,28.9,29.31,WNW,288,0.0,0.0,95,0.00,,,0.00,Wunderground v.1.15,2013-01-21 03:38:00,
2013-01-21 03:43:00,30.2,28.9,29.30,WNW,288,0.0,0.0,95,0.00,,,0.00,Wunderground v.1.15,2013-01-21 03:43:00,
2013-01-21 03:48:00,30.1,28.8,29.30,WNW,288,0.0,1.0,95,0.00,,,0.00,Wunderground v.1.15,2013-01-21 03:48:00,
2013-01-21 03:53:00,30.1,29.1,29.30,WNW,288,0.0,0.0,96,0.00,,,0.00,Wunderground v.1.15,2013-01-21 03:53:00,
2013-01-21 04:03:00,30.1,29.1,29.31,WNW,288,0.0,0.0,96,0.00,,,0.00,Wunderground v.1.15,2013-01-21 04:03:00,
2013-01-21 04:08:00,30.1,29.1,29.30,WNW,288,0.0,0.0,96,0.00,,,0.00,Wunderground v.1.15,2013-01-21 04:08:00,
2013-01-21 04:18:00,30.1,29.1,29.31,SW,227,0.0,2.0,96,0.00,,,0.00,Wunderground v.1.15,2013-01-21 04:18:00,
2013-01-21 04:23:00,30.1,29.1,29.31,SW,227,0.0,0.0,96,0.00,,,0.00,Wunderground v.1.15,2013-01-21 04:23:00,
2013-01-21 04:33:00,30.1,29.1,29.31,SW,227,0.0,0.0,96,0.00,,,0.00,Wunderground v.1.15,2013-01-21 04:33:00,
2013-01-21 04:38:00,30.1,29.1,29.31,SW,227,0.0,0.0,96,0.00,,,0.00,Wunderground v.1.15,2013-01-21 04:38:00,
2013-01-21 04:43:00,30.1,29.1,29.31,SW,227,0.0,0.0,96,0.00,,,0.00,Wunderground v.1.15,2013-01-21 04:43:00,
2013-01-21 04:53:00,30.1,29.1,29.31,SW,227,0.0,0.0,96,0.00,,,0.00,Wunderground v.1.15,2013-01-21 04:53:00,
2013-01-21 05:03:00,30.1,29.1,29.31,SW,227,0.0,0.0,96,0.00,,,0.00,Wunderground v.1.15,2013-01-21 05:03:00,
2013-01-21 05:08:00,30.1,29.1,29.31,SW,227,0.0,0.0,96,0.00,,,0.00,Wunderground v.1.15,2013-01-21 05:08:00,
2013-01-21 05:13:00,30.1,29.1,29.31,SW,227,0.0,0.0,96,0.00,,,0.00,Wunderground v.1.15,2013-01-21 05:13:00,
2013-01-21 05:18:00,30.0,29.0,29.31,SW,227,0.0,0.0,96,0.00,,,0.00,Wunderground v.1.15,2013-01-21 05:18:00,
2013-01-21 05:28:00,30.1,29.1,29.31,SW,227,0.0,0.0,96,0.00,,,0.00,Wunderground v.1.15,2013-01-21 05:28:00,
2013-01-21 05:33:00,30.1,29.1,29.30,SW,227,0.0,0.0,96,0.00,,,0.00,Wunderground v.1.15,2013-01-21 05:33:00,
2013-01-21 05:43:00,30.1,29.1,29.31,SW,227,0.0,0.0,96,0.00,,,0.00,Wunderground v.1.15,2013-01-21 05:43:00,
2013-01-21 05:53:00,30.0,29.0,29.31,SW,227,0.0,0.0,96,0.00,,,0.00,Wunderground v.1.15,2013-01-21 05:53:00,
2013-01-21 06:03:00,30.0,29.0,29.31,SW,227,0.0,0.0,96,0.00,,,0.00,Wunderground v.1.15,2013-01-21 06:03:00,
2013-01-21 06:08:00,30.0,29.0,29.31,SW,227,0.0,0.0,96,0.00,,,0.00,Wunderground v.1.15,2013-01-21 06:08:00,
2013-01-21 06:13:00,30.0,29.0,29.31,SW,227,0.0,0.0,96,0.00,,,0.00,Wunderground v.1.15,2013-01-21 06:13:00,
2013-01-21 06:18:00,30.1,29.1,29.31,SW,227,0.0,0.0,96,0.00,,,0.00,Wunderground v.1.15,2013-01-21 06:18:00,
2013-01-21 06:28:00,30.1,29.1,29.31,SW,219,0.0,1.0,96,0.00,,,0.00,Wunderground v.1.15,2013-01-21 06:28:00,
2013-01-21 06:33:00,30.1,29.1,29.31,SSW,206,0.0,0.0,96,0.00,,,0.00,Wunderground v.1.15,2013-01-21 06:33:00,
2013-01-21 06:38:00,30.0,29.0,29.32,SSW,206,0.0,0.0,96,0.00,,,0.00,Wunderground v.1.15,2013-01-21 06:38:00,
2013-01-21 06:48:00,30.0,29.0,29.32,SSW,206,0.0,0.0,96,0.00,,,0.00,Wunderground v.1.15,2013-01-21 06:48:00,
2013-01-21 06:58:00,30.0,29.0,29.32,SSW,206,0.0,1.0,96,0.00,,,0.00,Wunderground v.1.15,2013-01-21 06:58:00,
2013-01-21 07:03:00,30.0,29.0,29.32,SSW,207,0.0,0.0,96,0.00,,,0.00,Wunderground v.1.15,2013-01-21 07:03:00,
2013-01-21 07:08:00,30.0,28.7,29.32,SSW,206,0.0,0.0,95,0.00,,,0.00,Wunderground v.1.15,2013-01-21 07:08:00,
2013-01-21 07:13:00,29.9,28.6,29.33,SSW,206,0.0,0.0,95,0.00,,,0.00,Wunderground v.1.15,2013-01-21 07:13:00,
2013-01-21 07:23:00,29.9,28.9,29.33,SSW,206,0.0,0.0,96,0.00,,,0.00,Wunderground v.1.15,2013-01-21 07:23:00,
2013-01-21 07:28:00,30.0,29.0,29.33,SSW,207,0.0,0.0,96,0.00,,,0.00,Wunderground v.1.15,2013-01-21 07:28:00,
2013-01-21 07:33:00,29.9,28.6,29.33,SSW,206,0.0,0.0,95,0.00,,,0.00,Wunderground v.1.15,2013-01-21 07:33:00,
2013-01-21 07:43:00,29.9,28.9,29.33,SSW,206,0.0,0.0,96,0.00,,,0.00,Wunderground v.1.15,2013-01-21 07:43:00,
2013-01-21 07:48:00,29.9,28.9,29.33,SSW,206,0.0,0.0,96,0.00,,,0.00,Wunderground v.1.15,2013-01-21 07:48:00,
2013-01-21 07:53:00,29.9,28.9,29.33,SSW,206,0.0,0.0,96,0.00,,,0.00,Wunderground v.1.15,2013-01-21 07:53:00,
2013-01-21 07:58:00,29.9,28.9,29.34,SSW,206,0.0,1.0,96,0.00,,,0.00,Wunderground v.1.15,2013-01-21 07:58:00,
2013-01-21 08:08:00,29.9,28.9,29.34,SSW,206,0.0,0.0,96,0.00,,,0.00,Wunderground v.1.15,2013-01-21 08:08:00,
2013-01-21 08:13:00,30.0,29.0,29.34,SSW,206,0.0,0.0,96,0.00,,,0.00,Wunderground v.1.15,2013-01-21 08:13:00,
2013-01-21 08:18:00,30.0,29.0,29.34,SSW,206,0.0,1.0,96,0.00,,,0.00,Wunderground v.1.15,2013-01-21 08:18:00,
2013-01-21 08:28:00,30.0,28.7,29.35,SSW,206,1.0,1.0,95,0.00,,,0.00,Wunderground v.1.15,2013-01-21 08:28:00,
2013-01-21 08:33:00,30.0,28.7,29.35,SSW,206,0.0,1.0,95,0.00,,,0.00,Wunderground v.1.15,2013-01-21 08:33:00,
2013-01-21 08:38:00,30.1,28.8,29.35,SSW,206,0.0,1.0,95,0.00,,,0.00,Wunderground v.1.15,2013-01-21 08:38:00,
2013-01-21 08:43:00,30.1,29.1,29.35,SSW,206,0.0,0.0,96,0.00,,,0.00,Wunderground v.1.15,2013-01-21 08:43:00,
2013-01-21 08:53:00,30.2,29.2,29.36,SSW,206,0.0,0.0,96,0.00,,,0.00,Wunderground v.1.15,2013-01-21 08:53:00,
2013-01-21 08:58:00,30.3,29.3,29.36,SSW,206,0.0,0.0,96,0.00,,,0.00,Wunderground v.1.15,2013-01-21 08:58:00,
2013-01-21 09:03:00,30.3,29.3,29.36,SSW,206,0.0,0.0,96,0.00,,,0.00,Wunderground v.1.15,2013-01-21 09:03:00,
2013-01-21 09:13:00,30.5,29.5,29.36,SSW,206,0.0,0.0,96,0.00,,,0.00,Wunderground v.1.15,2013-01-21 09:13:00,
2013-01-21 09:18:00,30.6,29.3,29.36,SSW,206,0.0,1.0,95,0.00,,,0.00,Wunderground v.1.15,2013-01-21 09:18:00,
2013-01-21 09:23:00,30.7,29.7,29.36,SSW,206,0.0,0.0,96,0.00,,,0.00,Wunderground v.1.15,2013-01-21 09:23:00,
2013-01-21 09:28:00,30.8,29.8,29.36,SSW,206,0.0,0.0,96,0.00,,,0.00,Wunderground v.1.15,2013-01-21 09:28:00,
2013-01-21 09:38:00,31.1,29.8,29.36,SSW,206,0.0,0.0,95,0.00,,,0.00,Wunderground v.1.15,2013-01-21 09:38:00,
2013-01-21 09:48:00,31.2,29.9,29.37,SSW,205,0.0,0.0,95,0.00,,,0.00,Wunderground v.1.15,2013-01-21 09:48:00,
2013-01-21 09:58:00,31.4,29.9,29.37,SSW,205,0.0,0.0,94,0.00,,,0.00,Wunderground v.1.15,2013-01-21 09:58:00,
2013-01-21 10:03:00,31.6,30.1,29.38,SSW,205,0.0,1.0,94,0.00,,,0.00,Wunderground v.1.15,2013-01-21 10:03:00,
2013-01-21 10:13:00,31.7,30.2,29.38,SSW,205,0.0,0.0,94,0.00,,,0.00,Wunderground v.1.15,2013-01-21 10:13:00,
2013-01-21 10:23:00,32.0,30.5,29.38,SSW,206,0.0,0.0,94,0.00,,,0.00,Wunderground v.1.15,2013-01-21 10:23:00,
2013-01-21 10:28:00,32.3,30.8,29.38,SSW,206,0.0,0.0,94,0.00,,,0.00,Wunderground v.1.15,2013-01-21 10:28:00,
2013-01-21 10:33:00,32.5,30.7,29.38,SSW,206,0.0,0.0,93,0.00,,,0.00,Wunderground v.1.15,2013-01-21 10:33:00,
2013-01-21 10:43:00,32.9,30.8,29.38,SSW,205,1.0,1.0,92,0.00,,,0.00,Wunderground v.1.15,2013-01-21 10:43:00,
2013-01-21 10:48:00,33.1,31.0,29.39,SSW,202,1.0,1.0,92,0.00,,,0.00,Wunderground v.1.15,2013-01-21 10:48:00,
2013-01-21 10:58:00,33.4,31.1,29.38,SSW,202,0.0,0.0,91,0.00,,,0.00,Wunderground v.1.15,2013-01-21 10:58:00,
2013-01-21 11:03:00,33.5,30.9,29.39,SSW,202,0.0,0.0,90,0.00,,,0.00,Wunderground v.1.15,2013-01-21 11:03:00,
2013-01-21 11:08:00,33.6,30.7,29.39,SSW,202,1.0,1.0,89,0.00,,,0.00,Wunderground v.1.15,2013-01-21 11:08:00,
2013-01-21 11:13:00,33.6,30.7,29.39,SSW,202,1.0,1.0,89,0.00,,,0.00,Wunderground v.1.15,2013-01-21 11:13:00,
2013-01-21 11:23:00,33.7,30.8,29.39,SSW,200,1.0,1.0,89,0.00,,,0.00,Wunderground v.1.15,2013-01-21 11:23:00,
2013-01-21 11:28:00,33.7,30.8,29.39,SSW,199,1.0,1.0,89,0.00,,,0.00,Wunderground v.1.15,2013-01-21 11:28:00,
2013-01-21 11:38:00,33.5,30.3,29.39,SSW,198,1.0,2.0,88,0.00,,,0.00,Wunderground v.1.15,2013-01-21 11:38:00,
2013-01-21 11:43:00,33.5,30.6,29.39,SSW,198,1.0,1.0,89,0.00,,,0.00,Wunderground v.1.15,2013-01-21 11:43:00,
2013-01-21 11:48:00,33.5,30.6,29.39,SSW,198,0.0,2.0,89,0.00,,,0.00,Wunderground v.1.15,2013-01-21 11:48:00,
2013-01-21 11:58:00,33.7,30.8,29.40,South,173,2.0,4.0,89,0.00,,,0.00,Wunderground v.1.15,2013-01-21 11:58:00,
2013-01-21 12:08:00,34.6,31.7,29.40,SSE,149,2.0,4.0,89,0.00,,,0.00,Wunderground v.1.15,2013-01-21 12:08:00,
2013-01-21 12:13:00,35.0,31.5,29.40,SSE,149,1.0,1.0,87,0.00,,,0.00,Wunderground v.1.15,2013-01-21 12:13:00,
2013-01-21 12:23:00,35.5,31.7,29.40,SSE,149,0.0,3.0,86,0.00,,,0.00,Wunderground v.1.15,2013-01-21 12:23:00,
2013-01-21 12:33:00,35.3,31.2,29.40,SSE,149,1.0,1.0,85,0.00,,,0.00,Wunderground v.1.15,2013-01-21 12:33:00,
2013-01-21 12:43:00,35.1,31.0,29.40,SSE,149,1.0,2.0,85,0.00,,,0.00,Wunderground v.1.15,2013-01-21 12:43:00,
2013-01-21 12:48:00,35.2,31.1,29.40,South,178,1.0,2.0,85,0.00,,,0.01,Wunderground v.1.15,2013-01-21 12:48:00,
2013-01-21 12:53:00,35.3,31.5,29.40,South,175,1.0,1.0,86,0.00,,,0.01,Wunderground v.1.15,2013-01-21 12:53:00,
2013-01-21 12:58:00,35.3,31.2,29.40,South,175,1.0,3.0,85,0.00,,,0.01,Wunderground v.1.15,2013-01-21 12:58:00,
2013-01-21 13:03:00,35.1,31.0,29.40,South,175,1.0,1.0,85,0.00,,,0.01,Wunderground v.1.15,2013-01-21 13:03:00,
2013-01-21 13:13:00,34.8,31.0,29.40,South,175,1.0,1.0,86,0.00,,,0.01,Wunderground v.1.15,2013-01-21 13:13:00,
2013-01-21 13:23:00,35.2,31.7,29.40,South,175,0.0,0.0,87,0.00,,,0.01,Wunderground v.1.15,2013-01-21 13:23:00,
2013-01-21 13:28:00,35.3,31.2,29.40,South,175,1.0,2.0,85,0.00,,,0.01,Wunderground v.1.15,2013-01-21 13:28:00,
2013-01-21 13:33:00,35.4,31.3,29.40,South,175,1.0,1.0,85,0.00,,,0.01,Wunderground v.1.15,2013-01-21 13:33:00,
2013-01-21 13:38:00,35.2,31.1,29.40,South,171,1.0,1.0,85,0.00,,,0.01,Wunderground v.1.15,2013-01-21 13:38:00,
2013-01-21 13:48:00,34.6,30.8,29.41,South,171,1.0,1.0,86,0.00,,,0.01,Wunderground v.1.15,2013-01-21 13:48:00,
2013-01-21 13:53:00,34.5,30.7,29.41,SSE,161,2.0,5.0,86,0.00,,,0.01,Wunderground v.1.15,2013-01-21 13:53:00,
2013-01-21 14:03:00,34.3,30.5,29.41,South,187,3.0,3.0,86,0.00,,,0.01,Wunderground v.1.15,2013-01-21 14:03:00,
2013-01-21 14:08:00,34.3,30.8,29.41,South,184,2.0,3.0,87,0.00,,,0.01,Wunderground v.1.15,2013-01-21 14:08:00,
2013-01-21 14:13:00,34.7,31.2,29.41,South,184,1.0,1.0,87,0.00,,,0.01,Wunderground v.1.15,2013-01-21 14:13:00,
2013-01-21 14:23:00,35.2,31.4,29.41,South,173,1.0,4.0,86,0.00,,,0.01,Wunderground v.1.15,2013-01-21 14:23:00,
2013-01-21 14:28:00,35.2,31.1,29.41,South,173,1.0,4.0,85,0.00,,,0.01,Wunderground v.1.15,2013-01-21 14:28:00,
2013-01-21 14:38:00,35.1,31.0,29.42,South,173,1.0,2.0,85,0.00,,,0.01,Wunderground v.1.15,2013-01-21 14:38:00,
2013-01-21 14:43:00,35.1,31.0,29.42,South,173,1.0,1.0,85,0.00,,,0.01,Wunderground v.1.15,2013-01-21 14:43:00,
2013-01-21 14:53:00,34.8,30.8,29.42,South,173,1.0,1.0,85,0.08,,,0.02,Wunderground v.1.15,2013-01-21 14:53:00,
2013-01-21 14:58:00,34.6,30.8,29.42,South,173,0.0,1.0,86,0.08,,,0.02,Wunderground v.1.15,2013-01-21 14:58:00,
2013-01-21 15:03:00,34.4,30.6,29.42,South,173,0.0,1.0,86,0.06,,,0.02,Wunderground v.1.15,2013-01-21 15:03:00,
2013-01-21 15:08:00,34.2,30.4,29.42,South,173,0.0,1.0,86,0.04,,,0.02,Wunderground v.1.15,2013-01-21 15:08:00,
2013-01-21 15:18:00,33.6,30.1,29.42,South,173,1.0,1.0,87,0.00,,,0.02,Wunderground v.1.15,2013-01-21 15:18:00,
2013-01-21 15:23:00,33.2,29.8,29.43,South,170,1.0,1.0,87,0.00,,,0.02,Wunderground v.1.15,2013-01-21 15:23:00,
2013-01-21 15:28:00,32.9,29.7,29.43,South,170,1.0,1.0,88,0.00,,,0.03,Wunderground v.1.15,2013-01-21 15:28:00,
2013-01-21 15:38:00,32.6,29.4,29.43,South,170,1.0,1.0,88,0.00,,,0.03,Wunderground v.1.15,2013-01-21 15:38:00,
2013-01-21 15:48:00,32.3,29.4,29.43,South,170,0.0,1.0,89,0.00,,,0.03,Wunderground v.1.15,2013-01-21 15:48:00,
2013-01-21 15:53:00,32.1,29.2,29.44,South,170,0.0,1.0,89,0.00,,,0.03,Wunderground v.1.15,2013-01-21 15:53:00,
2013-01-21 15:58:00,32.0,29.4,29.44,South,170,0.0,1.0,90,0.00,,,0.03,Wunderground v.1.15,2013-01-21 15:58:00,
2013-01-21 16:03:00,31.8,29.2,29.44,South,170,0.0,0.0,90,0.00,,,0.03,Wunderground v.1.15,2013-01-21 16:03:00,
2013-01-21 16:13:00,31.5,28.9,29.44,South,170,0.0,0.0,90,0.00,,,0.04,Wunderground v.1.15,2013-01-21 16:13:00,
2013-01-21 16:18:00,31.3,29.0,29.44,South,170,0.0,0.0,91,0.00,,,0.04,Wunderground v.1.15,2013-01-21 16:18:00,
2013-01-21 16:28:00,31.0,28.7,29.45,South,170,0.0,0.0,91,0.00,,,0.04,Wunderground v.1.15,2013-01-21 16:28:00,
2013-01-21 16:33:00,30.8,28.5,29.45,South,170,0.0,0.0,91,0.00,,,0.04,Wunderground v.1.15,2013-01-21 16:33:00,
2013-01-21 16:43:00,30.5,28.2,29.45,South,170,0.0,0.0,91,0.00,,,0.04,Wunderground v.1.15,2013-01-21 16:43:00,
2013-01-21 16:53:00,30.1,27.8,29.46,South,170,0.0,0.0,91,0.00,,,0.04,Wunderground v.1.15,2013-01-21 16:53:00,
2013-01-21 17:03:00,29.7,27.4,29.46,South,170,0.0,0.0,91,0.00,,,0.04,Wunderground v.1.15,2013-01-21 17:03:00,
2013-01-21 17:08:00,29.6,27.6,29.46,South,170,0.0,0.0,92,0.00,,,0.04,Wunderground v.1.15,2013-01-21 17:08:00,
2013-01-21 17:13:00,29.4,27.4,29.47,South,170,0.0,0.0,92,0.00,,,0.04,Wunderground v.1.15,2013-01-21 17:13:00,
2013-01-21 17:18:00,29.3,27.3,29.47,South,170,0.0,1.0,92,0.00,,,0.04,Wunderground v.1.15,2013-01-21 17:18:00,
2013-01-21 17:28:00,29.2,27.2,29.47,South,171,0.0,0.0,92,0.00,,,0.04,Wunderground v.1.15,2013-01-21 17:28:00,
2013-01-21 17:33:00,29.1,27.3,29.47,South,170,0.0,0.0,93,0.00,,,0.04,Wunderground v.1.15,2013-01-21 17:33:00,
2013-01-21 17:38:00,29.1,27.3,29.47,South,170,0.0,0.0,93,0.00,,,0.04,Wunderground v.1.15,2013-01-21 17:38:00,
2013-01-21 17:43:00,29.0,27.2,29.47,South,170,0.0,0.0,93,0.00,,,0.04,Wunderground v.1.15,2013-01-21 17:43:00,
2013-01-21 17:48:00,28.9,27.1,29.48,South,171,0.0,0.0,93,0.00,,,0.04,Wunderground v.1.15,2013-01-21 17:48:00,
2013-01-21 17:58:00,28.9,27.1,29.48,South,170,0.0,0.0,93,0.00,,,0.04,Wunderground v.1.15,2013-01-21 17:58:00,
2013-01-21 18:03:00,28.9,27.4,29.48,South,171,0.0,0.0,94,0.00,,,0.04,Wunderground v.1.15,2013-01-21 18:03:00,
2013-01-21 18:13:00,28.9,27.4,29.48,South,170,0.0,0.0,94,0.00,,,0.04,Wunderground v.1.15,2013-01-21 18:13:00,
2013-01-21 18:18:00,28.9,27.4,29.49,South,171,0.0,0.0,94,0.00,,,0.04,Wunderground v.1.15,2013-01-21 18:18:00,
2013-01-21 18:23:00,29.0,27.5,29.49,South,170,0.0,0.0,94,0.00,,,0.04,Wunderground v.1.15,2013-01-21 18:23:00,
2013-01-21 18:28:00,29.0,27.5,29.49,South,170,0.0,1.0,94,0.00,,,0.04,Wunderground v.1.15,2013-01-21 18:28:00,
2013-01-21 18:33:00,29.0,27.5,29.49,South,170,0.0,0.0,94,0.00,,,0.04,Wunderground v.1.15,2013-01-21 18:33:00,
2013-01-21 18:43:00,29.0,27.5,29.50,South,170,0.0,0.0,94,0.00,,,0.04,Wunderground v.1.15,2013-01-21 18:43:00,
2013-01-21 18:53:00,29.0,27.5,29.50,South,170,0.0,0.0,94,0.00,,,0.04,Wunderground v.1.15,2013-01-21 18:53:00,
2013-01-21 18:58:00,29.0,27.5,29.50,South,170,0.0,0.0,94,0.00,,,0.04,Wunderground v.1.15,2013-01-21 18:58:00,
2013-01-21 19:08:00,29.1,27.8,29.50,South,170,0.0,0.0,95,0.00,,,0.04,Wunderground v.1.15,2013-01-21 19:08:00,
2013-01-21 19:13:00,29.2,27.9,29.50,South,170,0.0,0.0,95,0.00,,,0.04,Wunderground v.1.15,2013-01-21 19:13:00,
2013-01-21 19:23:00,29.5,28.2,29.51,South,170,0.0,0.0,95,0.00,,,0.04,Wunderground v.1.15,2013-01-21 19:23:00,
2013-01-21 19:28:00,29.5,28.2,29.50,South,170,0.0,0.0,95,0.00,,,0.04,Wunderground v.1.15,2013-01-21 19:28:00,
2013-01-21 19:33:00,29.6,28.3,29.50,South,170,0.0,0.0,95,0.00,,,0.04,Wunderground v.1.15,2013-01-21 19:33:00,
2013-01-21 19:38:00,29.6,28.3,29.51,South,170,0.0,0.0,95,0.00,,,0.04,Wunderground v.1.15,2013-01-21 19:38:00,
2013-01-21 19:48:00,29.6,28.1,29.51,South,170,0.0,0.0,94,0.00,,,0.04,Wunderground v.1.15,2013-01-21 19:48:00,
2013-01-21 19:53:00,29.6,28.3,29.51,South,171,0.0,0.0,95,0.00,,,0.04,Wunderground v.1.15,2013-01-21 19:53:00,
2013-01-21 19:58:00,29.5,28.0,29.51,South,170,0.0,0.0,94,0.00,,,0.04,Wunderground v.1.15,2013-01-21 19:58:00,
2013-01-21 20:08:00,29.4,27.9,29.51,South,171,0.0,0.0,94,0.00,,,0.04,Wunderground v.1.15,2013-01-21 20:08:00,
2013-01-21 20:13:00,29.3,27.8,29.51,South,171,0.0,0.0,94,0.00,,,0.04,Wunderground v.1.15,2013-01-21 20:13:00,
2013-01-21 20:18:00,29.2,27.7,29.52,South,171,0.0,0.0,94,0.00,,,0.04,Wunderground v.1.15,2013-01-21 20:18:00,
2013-01-21 20:23:00,29.2,27.9,29.52,South,171,0.0,0.0,95,0.00,,,0.04,Wunderground v.1.15,2013-01-21 20:23:00,
2013-01-21 20:33:00,29.2,27.9,29.52,South,170,0.0,0.0,95,0.00,,,0.04,Wunderground v.1.15,2013-01-21 20:33:00,
2013-01-21 20:38:00,29.2,27.9,29.52,South,170,0.0,0.0,95,0.00,,,0.04,Wunderground v.1.15,2013-01-21 20:38:00,
2013-01-21 20:48:00,29.1,27.8,29.52,South,170,0.0,0.0,95,0.00,,,0.04,Wunderground v.1.15,2013-01-21 20:48:00,
2013-01-21 20:58:00,28.9,27.4,29.52,South,170,0.0,0.0,94,0.00,,,0.04,Wunderground v.1.15,2013-01-21 20:58:00,
2013-01-21 21:03:00,28.7,27.2,29.52,South,170,0.0,1.0,94,0.00,,,0.04,Wunderground v.1.15,2013-01-21 21:03:00,
2013-01-21 21:13:00,28.3,26.8,29.52,South,170,0.0,0.0,94,0.00,,,0.04,Wunderground v.1.15,2013-01-21 21:13:00,
2013-01-21 21:23:00,28.0,26.5,29.53,South,171,0.0,0.0,94,0.00,,,0.04,Wunderground v.1.15,2013-01-21 21:23:00,
2013-01-21 21:28:00,27.8,26.3,29.53,South,170,0.0,0.0,94,0.00,,,0.04,Wunderground v.1.15,2013-01-21 21:28:00,
2013-01-21 21:33:00,27.6,26.1,29.53,South,170,0.0,0.0,94,0.00,,,0.04,Wunderground v.1.15,2013-01-21 21:33:00,
2013-01-21 21:38:00,27.5,26.0,29.53,South,170,0.0,0.0,94,0.00,,,0.04,Wunderground v.1.15,2013-01-21 21:38:00,
2013-01-21 21:48:00,27.1,25.6,29.53,South,170,0.0,0.0,94,0.00,,,0.04,Wunderground v.1.15,2013-01-21 21:48:00,
2013-01-21 21:58:00,26.8,25.3,29.52,South,171,0.0,0.0,94,0.00,,,0.04,Wunderground v.1.15,2013-01-21 21:58:00,
2013-01-21 22:03:00,26.6,25.1,29.52,South,171,0.0,0.0,94,0.00,,,0.04,Wunderground v.1.15,2013-01-21 22:03:00,
2013-01-21 22:08:00,26.5,25.0,29.52,South,171,0.0,0.0,94,0.00,,,0.04,Wunderground v.1.15,2013-01-21 22:08:00,
2013-01-21 22:13:00,26.4,24.9,29.52,South,170,0.0,0.0,94,0.00,,,0.04,Wunderground v.1.15,2013-01-21 22:13:00,
2013-01-21 22:18:00,26.3,24.8,29.52,South,170,0.0,0.0,94,0.00,,,0.04,Wunderground v.1.15,2013-01-21 22:18:00,
2013-01-21 22:28:00,26.0,24.5,29.52,South,171,0.0,0.0,94,0.00,,,0.04,Wunderground v.1.15,2013-01-21 22:28:00,
2013-01-21 22:33:00,26.0,24.5,29.52,South,170,0.0,0.0,94,0.00,,,0.04,Wunderground v.1.15,2013-01-21 22:33:00,
2013-01-21 22:43:00,25.9,24.7,29.52,South,170,0.0,0.0,95,0.00,,,0.04,Wunderground v.1.15,2013-01-21 22:43:00,
2013-01-21 22:48:00,25.8,24.6,29.52,South,171,0.0,0.0,95,0.00,,,0.04,Wunderground v.1.15,2013-01-21 22:48:00,
2013-01-21 22:58:00,25.7,24.5,29.52,South,170,0.0,0.0,95,0.00,,,0.04,Wunderground v.1.15,2013-01-21 22:58:00,
2013-01-21 23:03:00,25.6,24.1,29.52,South,170,0.0,0.0,94,0.00,,,0.04,Wunderground v.1.15,2013-01-21 23:03:00,
2013-01-21 23:13:00,25.7,24.5,29.53,South,170,0.0,0.0,95,0.00,,,0.04,Wunderground v.1.15,2013-01-21 23:13:00,
2013-01-21 23:18:00,25.7,24.5,29.53,South,170,0.0,0.0,95,0.00,,,0.04,Wunderground v.1.15,2013-01-21 23:18:00,
2013-01-21 23:23:00,25.7,24.5,29.53,South,170,0.0,0.0,95,0.00,,,0.04,Wunderground v.1.15,2013-01-21 23:23:00,
2013-01-21 23:33:00,25.6,24.4,29.54,South,170,0.0,0.0,95,0.00,,,0.04,Wunderground v.1.15,2013-01-21 23:33:00,
2013-01-21 23:38:00,25.5,24.3,29.54,South,171,0.0,0.0,95,0.00,,,0.04,Wunderground v.1.15,2013-01-21 23:38:00,
2013-01-21 23:43:00,25.4,24.2,29.54,South,170,0.0,0.0,95,0.00,,,0.04,Wunderground v.1.15,2013-01-21 23:43:00,
2013-01-21 23:48:00,25.3,24.1,29.55,South,170,0.0,0.0,95,0.00,,,0.04,Wunderground v.1.15,2013-01-21 23:48:00,
2013-01-21 23:53:00,25.2,24.0,29.55,South,170,0.0,0.0,95,0.00,,,0.04,Wunderground v.1.15,2013-01-21 23:53:00,